M1DJR Weather Reports


time (UTC)temp
C
wind
direction
speed
KPH
gust
KPH
rain 1hr
cm
rain 24hr
cm
rain mn
cm
humidity
%
barometer
mb
20260502130205 21 0.0 0.0 0.00 0.00 0.00 41 1014.1
20260502123148 21 0.0 0.0 0.00 0.00 0.00 42 1014.5
20260502122145 20 0.0 0.0 0.00 0.00 0.00 44 1014.8
20260502121144 20 0.0 0.0 0.00 0.00 0.00 45 1014.8
20260502120143 20 0.0 0.0 0.00 0.00 0.00 47 1014.8
20260502115140 18 0.0 0.0 0.00 0.00 0.00 49 1015.1
20260502114138 18 0.0 0.0 0.00 0.00 0.00 51 1015.3
20260502113136 17 0.0 0.0 0.00 0.00 0.00 54 1015.6
20260502112133 17 0.0 0.0 0.00 0.00 0.00 55 1015.8
20260502111133 16 0.0 0.0 0.00 0.00 0.00 58 1015.8
20260502110131 16 0.0 0.0 0.00 0.00 0.00 60 1015.7
20260502105127 15 0.0 0.0 0.00 0.00 0.00 61 1015.6
20260502104125 15 0.0 0.0 0.00 0.00 0.00 62 1015.7
20260502103134 14 0.0 0.0 0.00 0.00 0.00 64 1015.7
20260502102121 14 0.0 0.0 0.00 0.00 0.00 66 1015.9
20260502101621 13 0.0 0.0 0.00 0.00 0.00 67 1016.0
20260502100117 13 0.0 0.0 0.00 0.00 0.00 67 1016.2
20260502091107 12 0.0 0.0 0.00 0.00 0.00 72 1016.7
20260502090106 12 0.0 0.0 0.00 0.00 0.00 72 1016.6
20260502071047 10 0.0 0.0 0.00 0.00 0.00 82 1016.8
20260502070041 10 0.0 0.0 0.00 0.00 0.00 82 1016.7
20260502065119 9 0.0 0.0 0.00 0.00 0.00 83 1016.7
20260502064039 9 0.0 0.0 0.00 0.00 0.00 84 1016.7
20260502063036 9 0.0 0.0 0.00 0.00 0.00 84 1016.7
20260502062034 8 0.0 0.0 0.00 0.00 0.00 84 1016.6
20260502061112 8 0.0 0.0 0.00 0.00 0.00 84 1016.6
20260502060030 8 0.0 0.0 0.00 0.00 0.00 84 1016.5
20260502055031 8 0.0 0.0 0.00 0.00 0.00 84 1016.5
20260502054026 8 0.0 0.0 0.00 0.00 0.00 83 1016.5
20260502053024 8 0.0 0.0 0.00 0.00 0.00 83 1016.5
20260502052021 8 0.0 0.0 0.00 0.00 0.00 83 1016.4
20260502051030 8 0.0 0.0 0.00 0.00 0.00 82 1016.4
20260502050018 8 0.0 0.0 0.00 0.00 0.00 82 1016.4
20260502045026 8 0.0 0.0 0.00 0.00 0.00 82 1016.5
20260502044014 8 0.0 0.0 0.00 0.00 0.00 82 1016.6
20260502043013 8 0.0 0.0 0.00 0.00 0.00 81 1016.6
20260502042010 8 0.0 0.0 0.00 0.00 0.00 81 1016.6
20260502041008 8 0.0 0.0 0.00 0.00 0.00 81 1016.7
20260502040005 8 0.0 0.0 0.00 0.00 0.00 81 1016.7
20260502035055 8 0.0 0.0 0.00 0.00 0.00 81 1016.7
20260502033500 9 0.0 0.0 0.00 0.00 0.00 80 1016.9
20260502032539 9 0.0 0.0 0.00 0.00 0.00 80 1016.8
20260502031456 9 0.0 0.0 0.00 0.00 0.00 80 1016.8
20260502030505 10 0.0 0.0 0.00 0.00 0.00 80 1016.9
20260502025523 10 0.0 0.0 0.00 0.00 0.00 80 1017.0
20260502024451 10 0.0 0.0 0.00 0.00 0.00 80 1017.0
20260502023449 10 0.0 0.0 0.00 0.00 0.00 80 1017.0
20260502022446 10 0.0 0.0 0.00 0.00 0.00 79 1017.1
20260502021445 10 0.0 0.0 0.00 0.00 0.00 79 1017.1
20260502020443 11 0.0 0.0 0.00 0.00 0.00 79 1017.1
20260502015441 11 0.0 0.0 0.00 0.00 0.00 79 1017.3
20260502014519 11 0.0 0.0 0.00 0.00 0.00 78 1017.4
20260502013436 11 0.0 0.0 0.00 0.00 0.00 78 1017.5
20260502012435 11 0.0 0.0 0.00 0.00 0.00 78 1017.5
20260502011433 11 0.0 0.0 0.00 0.00 0.00 78 1017.7
20260502010431 11 0.0 0.0 0.00 0.00 0.00 78 1017.7
20260502005439 11 0.0 0.0 0.00 0.00 0.00 78 1017.7
20260502004427 11 0.0 0.0 0.00 0.00 0.00 78 1017.8
20260502003425 12 0.0 0.0 0.00 0.00 0.00 78 1017.8
20260502002423 12 0.0 0.0 0.00 0.00 0.00 79 1017.8
20260502001421 12 0.0 0.0 0.00 0.00 0.00 79 1017.9
20260502000419 12 0.0 0.0 0.00 0.00 0.00 79 1018.0
20260501235416 12 0.0 0.0 0.00 0.00 0.00 79 1018.0
20260501234415 12 0.0 0.0 0.00 0.00 0.00 79 1018.1
20260501233452 12 0.0 0.0 0.00 0.00 0.00 80 1018.1
20260501232501 12 0.0 0.0 0.00 0.00 0.00 79 1018.1
20260501231409 12 0.0 0.0 0.00 0.00 0.00 79 1018.0
20260501230407 12 0.0 0.0 0.00 0.00 0.00 79 1018.1
20260501225454 12 0.0 0.0 0.00 0.00 0.00 78 1018.0
20260501224402 12 0.0 0.0 0.00 0.00 0.00 78 1017.9
20260501223401 12 0.0 0.0 0.00 0.00 0.00 78 1017.9
20260501222409 12 0.0 0.0 0.00 0.00 0.00 78 1017.9
20260501221357 12 0.0 0.0 0.00 0.00 0.00 78 1018.0
20260501220354 12 0.0 0.0 0.00 0.00 0.00 78 1018.0
20260501215433 12 0.0 0.0 0.00 0.00 0.00 76 1017.9
20260501214351 12 0.0 0.0 0.00 0.00 0.00 76 1018.0
20260501213349 12 0.0 0.0 0.00 0.00 0.00 75 1017.9
20260501212357 13 0.0 0.0 0.00 0.00 0.00 74 1017.9
20260501211344 13 0.0 0.0 0.00 0.00 0.00 74 1017.9
20260501210424 13 0.0 0.0 0.00 0.00 0.00 73 1018.0
20260501205341 13 0.0 0.0 0.00 0.00 0.00 73 1018.0
20260501204349 13 0.0 0.0 0.00 0.00 0.00 72 1018.0
20260501203347 13 0.0 0.0 0.00 0.00 0.00 72 1018.0
20260501202336 14 0.0 0.0 0.00 0.00 0.00 71 1018.0
20260501201333 14 0.0 0.0 0.00 0.00 0.00 70 1018.0
20260501200331 15 0.0 0.0 0.00 0.00 0.00 69 1018.0
20260501195328 15 0.0 0.0 0.00 0.00 0.00 69 1018.0
20260501194327 15 0.0 0.0 0.00 0.00 0.00 68 1018.0
20260501193326 15 0.0 0.0 0.00 0.00 0.00 67 1018.0
20260501192403 15 0.0 0.0 0.00 0.00 0.00 65 1017.8
20260501191343 16 0.0 0.0 0.00 0.00 0.00 63 1017.8
20260501190329 16 0.0 0.0 0.00 0.00 0.00 62 1017.8
20260501185359 16 0.0 0.0 0.00 0.00 0.00 61 1017.7
20260501184316 16 0.0 0.0 0.00 0.00 0.00 59 1017.6
20260501183313 17 0.0 0.0 0.00 0.00 0.00 58 1017.6
20260501182310 17 0.0 0.0 0.00 0.00 0.00 56 1017.6
20260501181310 17 0.0 0.0 0.00 0.00 0.00 54 1017.5
20260501180317 18 0.0 0.0 0.00 0.00 0.00 52 1017.5
20260501175307 18 0.0 0.0 0.00 0.00 0.00 50 1017.5
20260501174303 18 0.0 0.0 0.00 0.00 0.00 49 1017.3
20260501173311 19 0.0 0.0 0.00 0.00 0.00 47 1017.2
20260501171256 20 0.0 0.0 0.00 0.00 0.00 45 1017.3
20260501170306 21 0.0 0.0 0.00 0.00 0.00 45 1016.9
20260501165253 21 0.0 0.0 0.00 0.00 0.00 43 1017.0
20260501164251 22 0.0 0.0 0.00 0.00 0.00 41 1016.8
20260501163249 23 0.0 0.0 0.00 0.00 0.00 38 1016.7
20260501162248 23 0.0 0.0 0.00 0.00 0.00 36 1016.5
20260501161245 24 0.0 0.0 0.00 0.00 0.00 34 1016.6
20260501160304 25 0.0 0.0 0.00 0.00 0.00 33 1016.7
20260501155241 25 0.0 0.0 0.00 0.00 0.00 33 1016.8
20260501154319 25 0.0 0.0 0.00 0.00 0.00 33 1016.8
20260501153248 25 0.0 0.0 0.00 0.00 0.00 33 1016.8
20260501152235 25 0.0 0.0 0.00 0.00 0.00 33 1016.8
20260501151232 26 0.0 0.0 0.00 0.00 0.00 32 1017.0
20260501150321 26 0.0 0.0 0.00 0.00 0.00 32 1017.1